User: anonymous   Login
Location: Strawberry
(45.6646°N, 111.9596°W)
Time: 09:39:57
(UTC+00:00)
Language:

Oscar 19 - Orbit

View from above orbital plane
View from above orbital plane
View from above satellite
View from above satellite

Ground track
Ground track

The orbit data is extracted from the following two-line orbital elements,

1 20442U 90005G   22330.84956702  .00000092  00000-0  50383-4 0  9991
2 20442  98.8174 298.3726 0012658  55.1419 305.0953 14.33116424716362
Epoch (UTC): 26 November 2022 20:23:22
Eccentricity: 0.0012658
inclination: 98.8174°
perigee height: 772 km
apogee height: 790 km
right ascension of ascending node: 298.3726°
argument of perigee: 55.1419°
revolutions per day: 14.33116424
mean anomaly at epoch: 305.0953°
orbit number at epoch: 71636

The dashed part of the orbit path shows where the satellite is in the earth's shadow,  

DLR